Location: Bournand
(47.0868°N, 0.0786°E)
Time: 06:59:56
(UTC+00:00)

Daily predictions for brighter satellites

Satellite Brightness Start Highest point End
(mag) Time Altitude Azimuth Time Altitude Azimuth Time Altitude Azimuth
Spot 2 Rocket 4.3 20:29:31 10° SE 20:34:11 39° ENE 20:38:53 10° N
Cosmos 1727 Rocket 4.1 20:28:31 10° S 20:34:47 74° E 20:41:03 10° NNE
Cosmos 1331 Rocket 4.4 20:31:09 10° S 20:36:05 43° ESE 20:41:05 10° NE
DNEPR-1 R/B 4.4 20:34:48 10° NNW 20:38:49 40° NE 20:42:57 10° ESE
FALCON 9 DEB 3.5 20:37:37 10° SSW 20:40:27 34° SE 20:43:18 10° ENE
CENTAUR R/B 3.8 20:36:11 10° WSW 20:42:07 50° NW 20:49:14 10° NE
Cosmos 1726 3.7 20:39:01 10° NNW 20:42:20 34° W 20:45:40 10° SSW
KORONAS-FOTON 3.9 20:39:26 10° S 20:43:09 56° E 20:46:52 10° NNE
CARTOSAT-1 4.3 20:40:47 10° SE 20:44:47 39° ENE 20:48:50 10° N
Terra 3.3 20:42:05 10° ESE 20:45:52 24° ENE 20:49:39 10° N
Cosmos 2360 Rocket 2.2 20:40:51 10° SSW 20:46:27 70° ESE 20:52:05 10° NNE
SPOT 1/Viking Rocket 3.6 20:41:38 10° SSE 20:46:44 69° ENE 20:51:52 10° N
Cosmos 1674 2.6 20:43:31 10° S 20:47:11 63° E 20:50:52 10° NNE
OBJECT-B 3.7 20:45:37 10° WSW 20:47:14 13° W 20:48:53 10° WNW
FALCON 9 DEB 3.6 20:45:38 10° SSW 20:48:26 31° SE 20:51:15 10° ENE
CZ-2C R/B 3.9 20:43:44 10° NNE 20:48:29 57° ESE 20:53:09 10° S
Cosmos 2322 Rocket 2.7 20:44:55 10° SW 20:50:36 69° WNW 20:56:19 10° NNE
SL-16 R/B 3.1 20:45:09 10° SW 20:50:42 55° WNW 20:56:18 10° NNE
FALCON 9 DEB 3.3 20:48:03 10° SSW 20:50:59 39° SE 20:53:55 10° ENE
Cosmos 1953 2.3 20:47:21 10° N 20:51:27 75° E 20:55:29 10° SSE
SPOT 5 3.7 20:48:33 10° SE 20:53:12 38° ENE 20:57:39 10° N
USA 245 4.3 20:48:51 10° SSE 20:53:55 72° ENE 20:59:54 10° N
Cosmos 1975 Rocket 3.0 20:50:02 10° S 20:54:23 85° E 20:58:49 10° N
Cosmos 1802 Rocket 4.2 20:49:11 10° N 20:55:24 59° ENE 21:01:40 10° SSE
Cosmos 1459 Rocket 4.0 20:50:49 10° N 20:56:53 72° E 21:02:56 10° SSE
Cosmos 1300 3.8 21:00:00 10° N 21:03:23 30° ENE 21:06:19 12° SE
Lacrosse 5 4.1 21:01:23 10° W 21:04:30 16° WSW 21:07:37 10° SSW
Resurs 01 Rocket 2.7 21:01:38 10° S 21:05:49 43° W 21:10:02 10° NNW
Meteor 1-16 Rocket 4.3 21:01:07 10° NNW 21:06:34 78° W 21:11:53 10° S
Cosmos 1000 Rocket 4.5 21:04:06 10° S 21:10:13 81° E 21:16:23 10° N
Cosmos 1340 3.1 21:07:29 10° SSE 21:11:03 44° E 21:14:40 10° NNE
Cosmos 2322 3.8 21:08:39 10° S 21:14:09 55° ESE 21:19:40 10° NE
Aureole 1 Rocket 4.4 21:08:50 10° NNW 21:14:54 72° WSW 21:22:34 10° S
SPOT 3 Rocket 4.4 21:10:42 10° S 21:15:40 47° W 21:20:43 10° NNW
Cosmos 2278 Rocket 3.5 21:10:45 10° NNW 21:15:46 31° NE 21:20:45 10° ESE
COSMOS 2428 3.2 21:10:37 10° S 21:15:56 40° ESE 21:21:15 10° NE
Cosmos 1844 Rocket 3.1 21:11:27 10° NNW 21:17:01 59° WSW 21:22:30 10° S
Cosmos 389 Rocket 4.3 21:19:51 10° NNE 21:22:19 18° ENE 21:24:17 12° ESE
Cosmos 1867 4.1 21:18:46 10° NNW 21:24:10 53° NE 21:28:54 13° ESE
ATLAS 2A CENTAUR R/B 4.5 21:20:27 10° SW 21:24:41 12° SSW 21:27:32 10° S
Cosmos 968 Rocket 3.8 21:24:30 10° NNW 21:29:34 57° ENE 21:33:29 17° SE
Cosmos 1908 4.4 21:28:12 10° NNW 21:31:51 40° W 21:35:27 10° SSW
Cosmos 1626 2.5 21:30:22 10° SSW 21:34:00 62° W 21:37:41 10° N
Cosmos 1544 Rocket 4.0 21:30:52 10° NNW 21:35:17 61° W 21:39:23 12° S
Cosmos 2123 Rocket 4.0 21:30:26 10° S 21:36:43 81° E 21:43:05 10° N
Cosmos 2061 Rocket 4.1 21:30:39 10° N 21:37:08 90° WSW 21:42:50 13° S
Meteor 2-10 Rocket 4.0 21:34:21 10° N 21:39:14 44° ENE 21:42:36 18° SE
Uosat 12 SS-18 rocket 4.3 21:36:09 10° SSW 21:40:22 52° ESE 21:45:12 10° NE
Cosmos 2233 Rocket 4.1 21:34:47 10° N 21:40:54 61° ENE 21:45:35 18° SSE
ARIANE 5 R/B 3.1 21:38:34 13° S 21:42:27 58° W 21:46:55 10° NNW
Cosmos 1346 Rocket 3.5 21:47:04 22° SSE 21:49:05 37° E 21:52:49 10° NNE
Cosmos 405 3.4 21:47:54 10° NNW 21:51:17 54° W 21:53:33 19° S
ATLAS CENTAUR R/B 2.3 21:47:26 10° NW 21:51:35 43° WSW 21:54:30 19° S
BREEZE-M DEB (TANK) 4.1 21:41:53 10° SW 21:54:45 40° SSE 21:58:41 10° E
ATLAS 3B R/B 2.7 21:49:35 10° SW 21:56:09 82° NW 22:02:58 10° NE
SL-4 R/B 2.4 21:54:32 10° SSW 21:58:25 38° SE 22:02:02 10° ENE
FALCON 9 DEB 3.2 21:57:16 10° WSW 22:00:23 69° NNW 22:03:32 10° ENE
CZ-4B DEB 4.3 22:03:26 29° S 22:04:54 70° WSW 22:08:05 10° NNW
Cosmos 2219 Rocket 2.4 22:00:15 10° SSW 22:05:56 74° WNW 22:11:38 10° NNE
Meteor 2-5 Rocket 3.8 22:01:11 11° SSW 22:06:31 79° WNW 22:12:10 10° N
Cosmos 2333 Rocket 2.7 22:01:55 10° SW 22:07:37 63° WNW 22:13:19 10° NNE
Lacrosse 5 rocket 2.9 22:04:28 10° W 22:07:49 33° NNW 22:11:07 10° NE
ERS-1 Rocket 3.7 22:04:07 15° S 22:08:03 48° W 22:12:57 10° NNW
Cosmos 1607 4.3 22:01:45 10° NNW 22:08:09 64° NE 22:12:53 18° SE
Cosmos 1536 Rocket 4.2 22:05:19 10° SSW 22:09:37 54° WNW 22:14:00 10° N
Cosmos 2228 3.0 22:07:19 10° N 22:11:46 77° E 22:14:06 27° SSE
Iridium 2 4.4 22:12:19 28° SE 22:13:36 38° E 22:17:05 10° NNE
FALCON 9 DEB 4.1 22:13:01 10° W 22:16:01 44° NNW 22:19:00 10° NE
USA 215 3.7 22:14:48 10° ENE 22:20:50 38° SE 22:25:28 16° SSW
Terra 2.5 22:20:12 19° SSW 22:23:20 46° W 22:27:57 10° NNW
FALCON 9 DEB 4.0 22:21:01 10° W 22:24:02 47° NNW 22:27:05 10° NE
SL-16 R/B 3.7 22:23:55 18° ESE 22:25:22 19° E 22:29:17 10° NE
FALCON 9 DEB 4.3 22:23:38 10° W 22:26:37 40° NNW 22:29:36 10° NE
Cosmos 2237 Rocket 2.3 22:23:45 23° S 22:27:03 54° ESE 22:32:32 10° NE
Cosmos 1455 2.4 22:24:53 10° N 22:28:39 56° ENE 22:29:59 35° SE
Cosmos 1184 Rocket 3.5 22:29:49 35° ESE 22:30:11 36° E 22:33:11 10° NNE
Cosmos 1464 Rocket 4.4 22:24:25 10° N 22:30:41 56° ENE 22:34:26 25° SE
SPOT 5 4.4 22:27:29 13° SSW 22:31:19 30° W 22:35:35 10° NW
H-2A R/B 4.0 22:29:21 10° N 22:33:22 54° WNW 22:36:19 17° SW
Cosmos 2369 Rocket 4.5 22:31:14 10° N 22:35:04 18° NE 22:38:52 10° E
Cosmos 1503 Rocket 4.0 22:29:43 10° NNW 22:35:08 89° ENE 22:37:58 29° SSE
Meteor 1-24 Rocket 4.3 22:33:33 12° SSW 22:38:21 53° WNW 22:43:47 10° N
GEOS 3 Rocket 4.0 22:38:08 20° ESE 22:41:53 64° NE 22:47:10 10° NW
ATLAS CENTAUR R/B 3.4 22:40:45 28° S 22:43:09 45° ESE 22:53:35 10° NE
USA 267 3.8 22:48:52 10° ESE 22:55:16 59° NNE 23:01:41 10° NW
Okean 1-7 Rocket 3.8 22:54:15 37° SSE 22:55:46 58° E 23:00:09 10° NNE
Cosmos 389 Rocket 3.9 22:54:00 10° NNW 22:57:00 28° W 22:58:04 24° SW
BREEZE-M DEB (TANK) 2.9 22:55:36 10° W 22:58:40 70° N 23:06:57 10° ENE
Cosmos 2278 Rocket 2.6 22:54:37 10° NW 23:00:07 51° WSW 23:02:45 29° S
COSMOS 2428 4.1 22:54:54 10° WSW 23:00:14 38° NW 23:05:36 10° NNE
Cosmos 1726 Rocket 4.1 22:57:48 10° NNW 23:02:07 50° W 23:03:59 30° SSW
Cosmos 2297 4.4 22:57:09 10° NNW 23:02:38 48° ENE 23:06:11 21° ESE
Cosmos 2058 Rocket 3.0 22:58:21 10° NNW 23:02:48 80° W 23:04:24 39° S
Cosmos 2034 Rocket 4.0 23:00:41 10° N 23:06:53 72° E 23:10:01 30° SSE
Centaur D AC-29 4.4 23:03:52 10° WSW 23:06:56 11° SW 23:09:10 10° SW
NOSS 0 Rocket 4.3 23:01:56 10° SW 23:08:05 65° WNW 23:14:19 10° NNE
SJ 16-02 2.2 23:11:24 10° N 23:15:35 42° ENE 23:17:27 27° ESE
Meteor 1-21 Rocket 4.2 23:14:30 30° SSW 23:17:25 85° W 23:23:13 10° N
Cosmos 1777 Rocket 4.0 23:15:22 10° NNW 23:20:42 89° WSW 23:22:57 36° SSE
Spot 4 4.1 23:20:17 35° SSW 23:22:06 58° WSW 23:26:50 10° NNW
Cosmos 1892 Rocket 4.5 23:21:07 24° SW 23:23:24 43° WNW 23:27:40 10° N
GP-B 4.0 23:20:31 10° NNE 23:24:41 38° E 23:26:01 30° ESE
Cosmos 1943 Rocket 2.6 23:20:16 10° NNW 23:25:43 56° ENE 23:28:53 24° SE
Meteor 1-4 Rocket 2.3 23:22:42 10° N 23:26:11 81° E 23:26:36 66° SSE
Cosmos 1441 Rocket 3.6 23:29:44 38° SW 23:30:53 56° WNW 23:34:39 10° N
MTI 4.1 23:29:40 10° NNE 23:32:27 48° E 23:32:27 48° E
ALOS 2 2.6 23:35:17 44° S 23:36:35 69° WSW 23:40:59 10° NNW
Tsikada Rocket 4.0 23:34:13 33° S 23:37:10 76° E 23:43:20 10° NNE
SL-4 R/B 2.3 23:33:56 10° W 23:37:55 61° NNW 23:41:36 10° ENE
USA 229 DEB 4.1 23:38:45 31° SSE 23:40:57 41° ESE 23:47:11 10° NE
USA 229 4.1 23:38:53 31° SSE 23:41:04 40° ESE 23:47:17 10° NE
Cosmos 1703 4.3 23:44:02 29° WSW 23:45:24 39° WNW 23:49:09 10° N
Lacrosse 5 rocket 4.1 23:45:17 10° NW 23:47:44 17° N 23:50:12 10° NE
NOSS 3-1 (C) 3.2 23:46:44 36° SSW 23:48:58 66° ESE 23:55:08 10° NE
Cosmos 1626 Rocket 3.8 23:49:24 38° SW 23:50:56 63° WNW 23:55:21 10° N
Cosmos 724 4.4 23:45:40 10° NW 23:51:47 64° WSW 23:54:20 35° S
Cosmos 1408 3.9 23:53:09 26° ESE 23:53:39 27° E 23:56:48 10° NNE
Elektron 1 3.7 23:50:57 10° NW 23:53:44 67° W 23:53:44 67° W
OPS 6432 4.1 23:51:42 10° NW 23:54:44 90° NE 23:54:59 76° SE
Cosmos 1825 4.2 23:54:28 16° ESE 23:55:15 17° E 23:57:47 10° NE
